Time,TemperatureF,DewpointF,PressureIn,WindDirection,WindDirectionDegrees,WindSpeedMPH,WindSpeedGustMPH,Humidity,HourlyPrecipIn,Conditions,Clouds,dailyrainin,SoftwareType,DateUTC
2013-03-10 00:57:00,42.6,38.4,28.97,South,180,0.0,0.0,85,0.00,,,0.00,WUHU21623XXSP,2013-03-10 06:57:00,
2013-03-10 01:57:00,43.2,39.6,28.96,South,180,0.9,0.9,87,0.00,,,0.00,WUHU21623XXSP,2013-03-10 07:57:00,
2013-03-10 03:57:00,44.4,40.7,28.94,SE,135,2.9,2.9,87,0.00,,,0.63,WUHU21623XXSP,2013-03-10 08:57:00,
2013-03-10 04:57:00,43.5,39.9,28.91,SE,135,10.5,10.5,87,0.00,,,0.86,WUHU21623XXSP,2013-03-10 09:57:00,
2013-03-10 05:57:00,42.4,39.1,28.90,SE,135,5.4,5.4,88,0.00,,,0.94,WUHU21623XXSP,2013-03-10 10:57:00,
2013-03-10 06:57:00,42.1,38.8,28.89,SE,135,4.3,4.3,88,0.00,,,0.94,WUHU21623XXSP,2013-03-10 11:57:00,
2013-03-10 07:26:00,42.1,38.8,28.93,South,180,3.4,3.4,88,0.00,,,0.94,WUHU21623XXSP,2013-03-10 12:26:00,
2013-03-10 07:31:00,42.1,38.8,28.93,South,180,0.0,3.4,88,0.00,,,0.94,WUHU21623XXSP,2013-03-10 12:31:00,
2013-03-10 07:36:00,42.4,39.1,28.93,South,180,0.0,3.4,88,0.00,,,0.94,WUHU21623XXSP,2013-03-10 12:36:00,
2013-03-10 07:41:00,42.4,39.1,28.93,South,180,1.6,1.6,88,0.00,,,0.94,WUHU21623XXSP,2013-03-10 12:41:00,
2013-03-10 07:46:00,42.4,39.1,28.94,South,180,2.0,2.0,88,0.00,,,0.94,WUHU21623XXSP,2013-03-10 12:46:00,
2013-03-10 07:51:00,42.6,39.3,28.94,SE,135,2.9,2.9,88,0.00,,,0.94,WUHU21623XXSP,2013-03-10 12:51:00,
2013-03-10 07:56:00,43.0,39.3,28.94,SSE,157,1.3,2.9,88,0.00,,,0.94,WUHU21623XXSP,2013-03-10 12:56:00,
2013-03-10 08:01:00,43.0,39.7,28.94,SSE,157,3.1,5.8,88,0.00,,,0.94,WUHU21623XXSP,2013-03-10 13:01:00,
2013-03-10 08:06:00,43.0,39.7,28.94,SSE,157,0.9,5.8,88,0.00,,,0.94,WUHU21623XXSP,2013-03-10 13:06:00,
2013-03-10 08:11:00,43.2,39.8,28.95,SSE,157,0.0,2.2,88,0.00,,,0.94,WUHU21623XXSP,2013-03-10 13:11:00,
2013-03-10 08:16:00,43.2,39.8,28.94,SSE,157,0.0,2.5,88,0.00,,,0.94,WUHU21623XXSP,2013-03-10 13:16:00,
2013-03-10 08:21:00,43.3,39.8,28.95,SSE,157,0.0,2.5,88,0.00,,,0.94,WUHU21623XXSP,2013-03-10 13:21:00,
2013-03-10 08:26:00,43.3,40.0,28.94,SSE,157,0.0,2.5,88,0.00,,,0.94,WUHU21623XXSP,2013-03-10 13:26:00,
2013-03-10 08:31:00,43.3,40.0,28.94,SSE,157,0.2,2.5,88,0.00,,,0.94,WUHU21623XXSP,2013-03-10 13:31:00,
2013-03-10 08:36:00,43.3,40.0,28.93,SE,135,0.0,3.1,88,0.00,,,0.94,WUHU21623XXSP,2013-03-10 13:36:00,
2013-03-10 08:41:00,43.5,40.2,28.92,SE,135,2.0,3.1,88,0.00,,,0.94,WUHU21623XXSP,2013-03-10 13:41:00,
2013-03-10 08:46:00,43.5,40.2,28.92,SE,135,0.0,2.0,88,0.00,,,0.94,WUHU21623XXSP,2013-03-10 13:46:00,
2013-03-10 08:51:00,43.7,40.4,28.93,SE,135,4.9,4.9,88,0.00,,,0.94,WUHU21623XXSP,2013-03-10 13:51:00,
2013-03-10 08:56:00,43.7,40.4,28.93,SSE,157,0.0,4.9,88,0.00,,,0.94,WUHU21623XXSP,2013-03-10 13:56:00,
2013-03-10 09:01:00,43.7,40.4,28.92,SSE,157,1.6,1.6,88,0.00,,,0.94,WUHU21623XXSP,2013-03-10 14:01:00,
2013-03-10 09:06:00,43.9,40.6,28.92,SSE,157,0.0,3.6,88,0.00,,,0.94,WUHU21623XXSP,2013-03-10 14:06:00,
2013-03-10 09:11:00,43.9,40.6,28.93,South,180,2.2,3.6,88,0.00,,,0.94,WUHU21623XXSP,2013-03-10 14:11:00,
2013-03-10 09:16:00,44.1,41.1,28.93,SSE,157,1.1,2.2,89,0.00,,,0.94,WUHU21623XXSP,2013-03-10 14:16:00,
2013-03-10 09:21:00,44.4,41.2,28.94,SSE,157,0.0,1.1,89,0.00,,,0.94,WUHU21623XXSP,2013-03-10 14:21:00,
2013-03-10 09:26:00,44.4,41.4,28.94,SSE,157,7.2,7.2,89,0.00,,,0.94,WUHU21623XXSP,2013-03-10 14:26:00,
2013-03-10 09:31:00,44.4,41.4,28.94,SSE,157,5.1,7.2,89,0.00,,,0.94,WUHU21623XXSP,2013-03-10 14:31:00,
2013-03-10 09:36:00,44.4,41.4,28.94,SSE,157,5.1,5.1,89,0.00,,,0.94,WUHU21623XXSP,2013-03-10 14:36:00,
2013-03-10 09:41:00,44.4,41.4,28.94,SSE,157,4.9,5.1,89,0.00,,,0.94,WUHU21623XXSP,2013-03-10 14:41:00,
2013-03-10 09:46:00,44.6,41.6,28.94,SSW,202,4.9,7.2,89,0.00,,,0.94,WUHU21623XXSP,2013-03-10 14:46:00,
2013-03-10 09:51:00,44.6,41.6,28.94,SSE,157,2.7,7.2,89,0.00,,,0.94,WUHU21623XXSP,2013-03-10 14:51:00,
2013-03-10 09:56:00,44.8,41.8,28.94,South,180,3.4,3.4,89,0.00,,,0.94,WUHU21623XXSP,2013-03-10 14:56:00,
2013-03-10 10:01:00,44.8,41.8,28.94,SSE,157,0.0,3.4,89,0.00,,,0.94,WUHU21623XXSP,2013-03-10 15:01:00,
2013-03-10 10:06:00,44.8,41.8,28.95,SW,225,0.0,4.5,89,0.00,,,0.94,WUHU21623XXSP,2013-03-10 15:06:00,
2013-03-10 10:11:00,45.0,42.0,28.94,SSE,157,6.7,6.7,89,0.00,,,0.94,WUHU21623XXSP,2013-03-10 15:11:00,
2013-03-10 10:16:00,45.0,42.0,28.94,SW,225,4.0,6.7,89,0.00,,,0.94,WUHU21623XXSP,2013-03-10 15:16:00,
2013-03-10 10:21:00,45.0,42.0,28.94,South,180,1.3,4.0,89,0.00,,,0.94,WUHU21623XXSP,2013-03-10 15:21:00,
2013-03-10 10:26:00,45.1,42.1,28.94,SW,225,2.9,2.9,89,0.00,,,0.94,WUHU21623XXSP,2013-03-10 15:26:00,
2013-03-10 10:31:00,45.1,42.1,28.94,South,180,2.0,6.0,89,0.00,,,0.94,WUHU21623XXSP,2013-03-10 15:31:00,
2013-03-10 10:36:00,45.1,42.1,28.93,SE,135,2.7,6.0,89,0.03,,,0.96,WUHU21623XXSP,2013-03-10 15:36:00,
2013-03-10 10:41:00,45.1,42.1,28.92,SSE,157,4.5,4.5,89,0.03,,,0.96,WUHU21623XXSP,2013-03-10 15:41:00,
2013-03-10 10:46:00,45.3,42.3,28.92,SSE,157,2.9,5.4,89,0.03,,,0.96,WUHU21623XXSP,2013-03-10 15:46:00,
2013-03-10 10:51:00,45.3,42.3,28.91,SSE,157,6.7,6.7,89,0.03,,,0.96,WUHU21623XXSP,2013-03-10 15:51:00,
2013-03-10 10:56:00,45.5,42.5,28.89,SSE,157,0.0,6.7,89,0.03,,,0.96,WUHU21623XXSP,2013-03-10 15:56:00,
2013-03-10 11:01:00,45.5,42.5,28.89,SSE,157,1.3,1.6,89,0.03,,,0.96,WUHU21623XXSP,2013-03-10 16:01:00,
2013-03-10 11:06:00,45.7,42.7,28.90,SSW,202,2.7,2.7,89,0.03,,,0.96,WUHU21623XXSP,2013-03-10 16:06:00,
2013-03-10 11:11:00,45.7,42.7,28.92,SSW,202,0.0,2.7,89,0.05,,,0.99,WUHU21623XXSP,2013-03-10 16:11:00,
2013-03-10 11:16:00,45.9,42.9,28.92,SSW,202,0.0,0.7,89,0.05,,,0.99,WUHU21623XXSP,2013-03-10 16:16:00,
2013-03-10 11:21:00,45.7,42.7,28.92,SSW,202,0.0,3.6,89,0.05,,,0.99,WUHU21623XXSP,2013-03-10 16:21:00,
2013-03-10 11:26:00,45.5,42.7,28.92,SSW,202,0.0,3.6,89,0.05,,,0.99,WUHU21623XXSP,2013-03-10 16:26:00,
2013-03-10 11:31:00,45.3,42.3,28.92,South,180,7.4,7.4,89,0.03,,,0.99,WUHU21623XXSP,2013-03-10 16:31:00,
2013-03-10 11:36:00,45.5,42.5,28.91,SSE,157,2.9,7.4,89,0.05,,,1.02,WUHU21623XXSP,2013-03-10 16:36:00,
2013-03-10 11:41:00,45.5,42.5,28.91,South,180,0.7,2.9,89,0.05,,,1.02,WUHU21623XXSP,2013-03-10 16:41:00,
2013-03-10 11:46:00,45.7,42.7,28.91,SSW,202,1.6,1.6,89,0.05,,,1.02,WUHU21623XXSP,2013-03-10 16:46:00,
2013-03-10 11:51:00,45.7,42.7,28.92,SSW,202,2.0,2.0,89,0.08,,,1.05,WUHU21623XXSP,2013-03-10 16:51:00,
2013-03-10 11:56:00,46.0,43.0,28.92,South,180,0.7,2.0,89,0.08,,,1.05,WUHU21623XXSP,2013-03-10 16:56:00,
2013-03-10 12:01:00,46.0,43.0,28.92,South,180,0.0,2.0,89,0.13,,,1.10,WUHU21623XXSP,2013-03-10 17:01:00,
2013-03-10 12:06:00,45.7,42.7,28.92,South,180,7.8,7.8,89,0.11,,,1.10,WUHU21623XXSP,2013-03-10 17:06:00,
2013-03-10 12:11:00,45.7,42.7,28.92,SSE,157,1.8,7.8,89,0.11,,,1.10,WUHU21623XXSP,2013-03-10 17:11:00,
2013-03-10 12:16:00,45.7,42.7,28.92,SSE,157,0.0,7.8,89,0.11,,,1.10,WUHU21623XXSP,2013-03-10 17:16:00,
2013-03-10 12:21:00,45.7,42.7,28.92,South,180,1.8,1.8,89,0.11,,,1.10,WUHU21623XXSP,2013-03-10 17:21:00,
2013-03-10 12:26:00,45.7,42.7,28.92,SSE,157,0.4,1.8,89,0.11,,,1.10,WUHU21623XXSP,2013-03-10 17:26:00,
2013-03-10 12:31:00,45.5,42.7,28.92,SSE,157,3.6,3.6,89,0.11,,,1.10,WUHU21623XXSP,2013-03-10 17:31:00,
2013-03-10 12:36:00,45.5,42.5,28.92,SSE,157,0.0,3.6,89,0.08,,,1.10,WUHU21623XXSP,2013-03-10 17:36:00,
2013-03-10 12:41:00,45.3,42.3,28.92,SE,135,5.6,5.6,89,0.11,,,1.13,WUHU21623XXSP,2013-03-10 17:41:00,
2013-03-10 12:46:00,45.3,42.3,28.91,SE,135,4.0,5.6,89,0.13,,,1.18,WUHU21623XXSP,2013-03-10 17:46:00,
2013-03-10 12:51:00,45.3,42.3,28.91,South,180,1.8,5.6,89,0.16,,,1.21,WUHU21623XXSP,2013-03-10 17:51:00,
2013-03-10 12:56:00,45.3,42.3,28.91,SSE,157,2.2,4.5,89,0.11,,,1.21,WUHU21623XXSP,2013-03-10 17:56:00,
2013-03-10 13:01:00,45.5,42.3,28.91,SSE,157,2.2,2.2,89,0.11,,,1.21,WUHU21623XXSP,2013-03-10 18:01:00,
2013-03-10 13:06:00,45.9,42.9,28.91,SSE,157,0.0,2.2,89,0.11,,,1.21,WUHU21623XXSP,2013-03-10 18:06:00,
2013-03-10 13:11:00,46.0,43.0,28.91,SSE,157,0.0,0.0,89,0.13,,,1.23,WUHU21623XXSP,2013-03-10 18:11:00,
2013-03-10 13:16:00,46.2,43.2,28.91,South,180,0.0,0.0,89,0.13,,,1.23,WUHU21623XXSP,2013-03-10 18:16:00,
2013-03-10 13:21:00,46.2,43.2,28.91,South,180,0.0,0.0,89,0.13,,,1.23,WUHU21623XXSP,2013-03-10 18:21:00,
2013-03-10 13:26:00,46.2,43.2,28.91,South,180,0.0,0.0,89,0.16,,,1.26,WUHU21623XXSP,2013-03-10 18:26:00,
2013-03-10 13:31:00,46.2,43.2,28.91,South,180,0.0,0.0,89,0.16,,,1.26,WUHU21623XXSP,2013-03-10 18:31:00,
2013-03-10 13:36:00,46.2,43.2,28.90,South,180,0.0,0.0,89,0.16,,,1.29,WUHU21623XXSP,2013-03-10 18:36:00,
2013-03-10 13:41:00,46.2,43.2,28.90,South,180,0.0,0.0,89,0.13,,,1.31,WUHU21623XXSP,2013-03-10 18:41:00,
2013-03-10 13:46:00,46.6,43.4,28.90,SSW,202,0.0,0.0,89,0.13,,,1.31,WUHU21623XXSP,2013-03-10 18:46:00,
2013-03-10 13:51:00,46.6,43.6,28.90,SSW,202,0.0,0.0,89,0.11,,,1.31,WUHU21623XXSP,2013-03-10 18:51:00,
2013-03-10 13:56:00,46.6,43.6,28.89,SSW,202,0.0,0.0,89,0.13,,,1.34,WUHU21623XXSP,2013-03-10 18:56:00,
2013-03-10 14:01:00,46.6,43.6,28.89,SSW,202,0.0,0.0,89,0.16,,,1.37,WUHU21623XXSP,2013-03-10 19:01:00,
2013-03-10 14:06:00,46.6,43.6,28.87,SSW,202,0.0,0.0,89,0.13,,,1.37,WUHU21623XXSP,2013-03-10 19:06:00,
2013-03-10 14:11:00,46.8,43.7,28.86,SSW,202,0.0,0.0,89,0.13,,,1.37,WUHU21623XXSP,2013-03-10 19:11:00,
2013-03-10 14:16:00,46.8,43.7,28.88,SSW,202,0.0,0.0,89,0.13,,,1.37,WUHU21623XXSP,2013-03-10 19:16:00,
2013-03-10 14:21:00,46.8,43.9,28.89,SSW,202,0.0,0.0,89,0.11,,,1.37,WUHU21623XXSP,2013-03-10 19:21:00,
2013-03-10 14:26:00,46.8,43.7,28.88,SSW,202,0.0,0.0,89,0.11,,,1.37,WUHU21623XXSP,2013-03-10 19:26:00,
2013-03-10 14:31:00,46.6,43.6,28.89,SSW,202,0.0,0.0,89,0.13,,,1.39,WUHU21623XXSP,2013-03-10 19:31:00,
2013-03-10 14:36:00,46.6,43.6,28.89,SW,225,1.8,1.8,89,0.11,,,1.42,WUHU21623XXSP,2013-03-10 19:36:00,
2013-03-10 14:41:00,46.6,43.6,28.89,SW,225,0.0,1.8,89,0.11,,,1.42,WUHU21623XXSP,2013-03-10 19:41:00,
2013-03-10 14:46:00,46.6,43.6,28.89,SW,225,0.0,0.0,89,0.11,,,1.42,WUHU21623XXSP,2013-03-10 19:46:00,
2013-03-10 14:51:00,46.2,43.2,28.88,SW,225,0.0,0.0,89,0.08,,,1.42,WUHU21623XXSP,2013-03-10 19:51:00,
2013-03-10 14:56:00,46.2,43.2,28.87,SW,225,0.0,0.0,89,0.05,,,1.42,WUHU21623XXSP,2013-03-10 19:56:00,
2013-03-10 15:01:00,46.2,43.2,28.88,SW,225,0.0,0.0,89,0.05,,,1.42,WUHU21623XXSP,2013-03-10 20:01:00,
2013-03-10 15:06:00,46.2,43.2,28.87,SW,225,0.0,0.0,89,0.05,,,1.42,WUHU21623XXSP,2013-03-10 20:06:00,
2013-03-10 15:11:00,46.2,43.2,28.87,WSW,247,0.0,0.0,89,0.08,,,1.45,WUHU21623XXSP,2013-03-10 20:11:00,
2013-03-10 15:16:00,46.2,43.2,28.88,WSW,247,0.0,0.0,89,0.08,,,1.45,WUHU21623XXSP,2013-03-10 20:16:00,
2013-03-10 15:21:00,46.2,43.2,28.89,WSW,247,0.0,0.0,89,0.08,,,1.45,WUHU21623XXSP,2013-03-10 20:21:00,
2013-03-10 15:26:00,46.2,43.2,28.88,WSW,247,0.0,0.0,89,0.05,,,1.45,WUHU21623XXSP,2013-03-10 20:26:00,
2013-03-10 15:31:00,46.6,43.6,28.87,WSW,247,0.0,0.0,89,0.03,,,1.45,WUHU21623XXSP,2013-03-10 20:31:00,
2013-03-10 15:36:00,46.6,43.6,28.86,WSW,247,0.0,0.0,89,0.03,,,1.45,WUHU21623XXSP,2013-03-10 20:36:00,
2013-03-10 15:41:00,46.8,43.7,28.86,WSW,247,0.0,0.0,89,0.03,,,1.45,WUHU21623XXSP,2013-03-10 20:41:00,
2013-03-10 15:46:00,46.9,43.9,28.87,WSW,247,0.0,0.0,89,0.03,,,1.45,WUHU21623XXSP,2013-03-10 20:46:00,
2013-03-10 15:52:00,47.5,44.5,28.85,WSW,247,0.0,0.0,89,0.03,,,1.45,WUHU21623XXSP,2013-03-10 20:52:00,
2013-03-10 15:57:00,47.8,44.6,28.84,WSW,247,0.0,0.0,89,0.03,,,1.45,WUHU21623XXSP,2013-03-10 20:57:00,
2013-03-10 16:01:00,48.0,44.8,28.84,WSW,247,0.0,0.0,89,0.05,,,1.47,WUHU21623XXSP,2013-03-10 21:01:00,
2013-03-10 16:06:00,48.0,45.0,28.83,WSW,247,0.0,0.0,89,0.03,,,1.47,WUHU21623XXSP,2013-03-10 21:06:00,
2013-03-10 16:12:00,48.2,45.2,28.81,NNE,22,0.0,0.0,89,0.03,,,1.47,WUHU21623XXSP,2013-03-10 21:12:00,
2013-03-10 16:17:00,48.4,45.2,28.79,NNE,22,0.0,0.0,89,0.03,,,1.47,WUHU21623XXSP,2013-03-10 21:17:00,
2013-03-10 16:22:00,48.4,45.2,28.79,ESE,112,0.0,0.0,89,0.03,,,1.47,WUHU21623XXSP,2013-03-10 21:22:00,
2013-03-10 16:27:00,48.7,45.7,28.78,NE,45,0.0,0.0,89,0.03,,,1.47,WUHU21623XXSP,2013-03-10 21:27:00,
2013-03-10 16:32:00,48.9,45.8,28.79,SE,135,0.0,0.0,89,0.03,,,1.47,WUHU21623XXSP,2013-03-10 21:32:00,
2013-03-10 16:37:00,48.9,45.8,28.79,SE,135,0.0,0.0,89,0.03,,,1.47,WUHU21623XXSP,2013-03-10 21:37:00,
2013-03-10 16:42:00,49.1,45.8,28.78,SE,135,0.0,0.0,89,0.03,,,1.47,WUHU21623XXSP,2013-03-10 21:42:00,
2013-03-10 16:47:00,49.1,46.0,28.78,SE,135,0.0,0.0,89,0.03,,,1.47,WUHU21623XXSP,2013-03-10 21:47:00,
2013-03-10 16:52:00,48.9,45.8,28.79,SE,135,0.0,0.0,89,0.03,,,1.47,WUHU21623XXSP,2013-03-10 21:52:00,
2013-03-10 16:57:00,48.7,45.7,28.81,SE,135,0.0,0.0,89,0.00,,,1.47,WUHU21623XXSP,2013-03-10 21:57:00,
2013-03-10 17:02:00,48.6,45.7,28.81,SE,135,0.2,0.2,89,0.00,,,1.47,WUHU21623XXSP,2013-03-10 22:02:00,
2013-03-10 17:07:00,48.4,45.3,28.81,SE,135,0.4,0.4,89,0.00,,,1.47,WUHU21623XXSP,2013-03-10 22:07:00,
2013-03-10 17:12:00,48.4,45.2,28.81,SE,135,0.0,0.4,89,0.00,,,1.47,WUHU21623XXSP,2013-03-10 22:12:00,
2013-03-10 17:17:00,48.0,45.0,28.81,SSE,157,0.0,0.0,89,0.00,,,1.47,WUHU21623XXSP,2013-03-10 22:17:00,
2013-03-10 17:22:00,48.0,45.0,28.82,SW,225,0.0,0.0,89,0.00,,,1.47,WUHU21623XXSP,2013-03-10 22:22:00,
2013-03-10 17:27:00,47.7,44.6,28.84,WSW,247,6.5,7.8,89,0.00,,,1.47,WUHU21623XXSP,2013-03-10 22:27:00,
2013-03-10 17:32:00,47.3,44.3,28.84,SW,225,6.0,7.8,89,0.00,,,1.47,WUHU21623XXSP,2013-03-10 22:32:00,
2013-03-10 17:37:00,46.9,43.9,28.85,SSW,202,0.0,6.5,89,0.00,,,1.47,WUHU21623XXSP,2013-03-10 22:37:00,
2013-03-10 17:42:00,46.6,43.6,28.85,SW,225,8.1,8.1,89,0.00,,,1.47,WUHU21623XXSP,2013-03-10 22:42:00,
2013-03-10 17:47:00,46.6,43.6,28.85,SW,225,7.4,8.1,88,0.00,,,1.47,WUHU21623XXSP,2013-03-10 22:47:00,
2013-03-10 17:52:00,46.2,42.9,28.85,SW,225,3.6,7.8,88,0.00,,,1.47,WUHU21623XXSP,2013-03-10 22:52:00,
2013-03-10 17:57:00,46.0,42.7,28.85,SW,225,9.4,9.4,88,0.00,,,1.47,WUHU21623XXSP,2013-03-10 22:57:00,
2013-03-10 18:02:00,46.0,42.7,28.85,SW,225,4.0,9.4,88,0.04,,,1.51,WUHU21623XXSP,2013-03-10 23:02:00,
2013-03-10 18:07:00,46.0,42.7,28.85,SW,225,0.0,7.2,88,0.07,,,1.54,WUHU21623XXSP,2013-03-10 23:07:00,
2013-03-10 18:12:00,45.7,42.4,28.83,SSW,202,0.0,0.9,88,0.09,,,1.57,WUHU21623XXSP,2013-03-10 23:12:00,
2013-03-10 18:17:00,45.7,42.4,28.84,SSW,202,0.0,0.9,88,0.12,,,1.59,WUHU21623XXSP,2013-03-10 23:17:00,
2013-03-10 18:22:00,45.7,42.4,28.84,SW,225,0.9,0.9,88,0.12,,,1.59,WUHU21623XXSP,2013-03-10 23:22:00,
2013-03-10 18:27:00,45.7,42.4,28.84,SW,225,0.0,0.9,88,0.12,,,1.59,WUHU21623XXSP,2013-03-10 23:27:00,
2013-03-10 18:32:00,45.7,42.4,28.84,SW,225,0.9,0.9,88,0.12,,,1.59,WUHU21623XXSP,2013-03-10 23:32:00,
2013-03-10 18:37:00,45.5,42.2,28.84,SW,225,0.0,0.9,88,0.12,,,1.59,WUHU21623XXSP,2013-03-10 23:37:00,
2013-03-10 18:42:00,45.5,42.2,28.84,SW,225,0.0,0.0,88,0.12,,,1.59,WUHU21623XXSP,2013-03-10 23:42:00,
2013-03-10 18:47:00,45.3,42.0,28.84,SW,225,0.0,0.0,88,0.12,,,1.59,WUHU21623XXSP,2013-03-10 23:47:00,
2013-03-10 18:52:00,45.3,42.0,28.84,SW,225,0.0,0.7,88,0.12,,,1.59,WUHU21623XXSP,2013-03-10 23:52:00,
2013-03-10 18:57:00,45.1,41.8,28.85,SW,225,0.0,0.9,88,0.08,,,1.59,WUHU21623XXSP,2013-03-10 23:57:00,
2013-03-10 19:02:00,45.1,41.8,28.85,SW,225,0.0,2.0,88,0.08,,,1.59,WUHU21623XXSP,2013-03-11 00:02:00,
2013-03-10 19:07:00,45.1,41.8,28.84,SW,225,0.0,2.0,88,0.05,,,1.59,WUHU21623XXSP,2013-03-11 00:07:00,
2013-03-10 19:12:00,45.0,41.6,28.85,SW,225,0.0,0.0,88,0.00,,,1.59,WUHU21623XXSP,2013-03-11 00:12:00,
2013-03-10 19:17:00,45.0,41.6,28.85,SW,225,0.0,0.0,88,0.00,,,1.59,WUHU21623XXSP,2013-03-11 00:17:00,
2013-03-10 19:22:00,45.0,41.6,28.85,SW,225,0.0,0.0,88,0.00,,,1.59,WUHU21623XXSP,2013-03-11 00:22:00,
2013-03-10 19:27:00,45.0,41.6,28.85,SW,225,0.9,1.1,88,0.00,,,1.59,WUHU21623XXSP,2013-03-11 00:27:00,
2013-03-10 19:32:00,44.8,41.5,28.86,SW,225,0.0,2.7,88,0.00,,,1.59,WUHU21623XXSP,2013-03-11 00:32:00,
2013-03-10 19:37:00,44.8,41.5,28.86,SW,225,0.0,2.7,88,0.00,,,1.59,WUHU21623XXSP,2013-03-11 00:37:00,
2013-03-10 19:42:00,44.6,41.3,28.86,SW,225,0.0,1.1,88,0.00,,,1.59,WUHU21623XXSP,2013-03-11 00:42:00,
2013-03-10 19:47:00,44.4,41.1,28.86,SW,225,0.0,1.1,88,0.00,,,1.59,WUHU21623XXSP,2013-03-11 00:47:00,
2013-03-10 19:53:00,44.4,41.1,28.86,SW,225,0.0,0.0,88,0.03,,,1.62,WUHU21623XXSP,2013-03-11 00:53:00,
2013-03-10 19:58:00,44.4,41.1,28.86,SW,225,2.0,2.0,88,0.05,,,1.65,WUHU21623XXSP,2013-03-11 00:58:00,
2013-03-10 20:03:00,44.2,40.9,28.86,SW,225,0.0,2.0,88,0.05,,,1.65,WUHU21623XXSP,2013-03-11 01:03:00,
2013-03-10 20:08:00,44.2,40.9,28.86,SW,225,0.0,0.0,88,0.05,,,1.65,WUHU21623XXSP,2013-03-11 01:08:00,
2013-03-10 20:13:00,44.1,40.7,28.86,SW,225,0.0,1.3,88,0.05,,,1.65,WUHU21623XXSP,2013-03-11 01:13:00,
2013-03-10 20:18:00,43.9,40.6,28.86,SW,225,0.0,1.3,88,0.05,,,1.65,WUHU21623XXSP,2013-03-11 01:18:00,
2013-03-10 20:23:00,43.7,40.4,28.86,WSW,247,0.0,0.0,88,0.05,,,1.65,WUHU21623XXSP,2013-03-11 01:23:00,
2013-03-10 20:28:00,43.5,40.2,28.86,WSW,247,0.0,0.0,88,0.05,,,1.65,WUHU21623XXSP,2013-03-11 01:28:00,
2013-03-10 20:33:00,43.5,40.2,28.86,WSW,247,0.0,0.0,88,0.05,,,1.65,WUHU21623XXSP,2013-03-11 01:33:00,
2013-03-10 20:38:00,43.2,39.8,28.87,WSW,247,0.7,0.7,88,0.05,,,1.65,WUHU21623XXSP,2013-03-11 01:38:00,
2013-03-10 20:43:00,43.0,39.7,28.87,West,270,0.0,0.7,88,0.05,,,1.65,WUHU21623XXSP,2013-03-11 01:43:00,
2013-03-10 20:48:00,43.0,39.7,28.87,West,270,0.0,0.0,88,0.05,,,1.65,WUHU21623XXSP,2013-03-11 01:48:00,
2013-03-10 20:53:00,42.6,39.3,28.87,WSW,247,1.3,1.3,88,0.03,,,1.65,WUHU21623XXSP,2013-03-11 01:53:00,
2013-03-10 20:58:00,42.6,39.3,28.87,WSW,247,0.0,1.3,88,0.00,,,1.65,WUHU21623XXSP,2013-03-11 01:58:00,
2013-03-10 21:03:00,42.4,39.1,28.87,WSW,247,0.0,0.7,88,0.00,,,1.65,WUHU21623XXSP,2013-03-11 02:03:00,
2013-03-10 21:08:00,42.3,38.9,28.87,WSW,247,0.0,0.0,88,0.00,,,1.65,WUHU21623XXSP,2013-03-11 02:08:00,
2013-03-10 21:13:00,42.1,38.8,28.87,WSW,247,0.0,0.0,88,0.00,,,1.65,WUHU21623XXSP,2013-03-11 02:13:00,
2013-03-10 21:18:00,42.1,38.8,28.87,WSW,247,0.0,0.0,88,0.00,,,1.65,WUHU21623XXSP,2013-03-11 02:18:00,
2013-03-10 21:23:00,41.9,38.6,28.87,WSW,247,0.0,0.0,88,0.00,,,1.65,WUHU21623XXSP,2013-03-11 02:23:00,
2013-03-10 21:28:00,41.9,38.6,28.87,WSW,247,0.0,0.0,88,0.00,,,1.65,WUHU21623XXSP,2013-03-11 02:28:00,
2013-03-10 21:33:00,41.7,38.4,28.87,WSW,247,0.0,0.0,88,0.00,,,1.65,WUHU21623XXSP,2013-03-11 02:33:00,
2013-03-10 21:38:00,41.5,38.4,28.87,WSW,247,0.0,0.0,88,0.00,,,1.65,WUHU21623XXSP,2013-03-11 02:38:00,
2013-03-10 21:43:00,41.5,38.2,28.87,WSW,247,0.0,0.0,88,0.00,,,1.65,WUHU21623XXSP,2013-03-11 02:43:00,
2013-03-10 21:48:00,41.5,38.2,28.87,WSW,247,0.0,0.9,88,0.00,,,1.65,WUHU21623XXSP,2013-03-11 02:48:00,
2013-03-10 21:53:00,41.4,38.0,28.87,WSW,247,0.0,0.9,88,0.00,,,1.65,WUHU21623XXSP,2013-03-11 02:53:00,
2013-03-10 21:58:00,41.4,38.0,28.87,WSW,247,2.7,2.7,88,0.00,,,1.65,WUHU21623XXSP,2013-03-11 02:58:00,
2013-03-10 22:03:00,41.2,37.9,28.88,SW,225,0.0,2.7,88,0.00,,,1.65,WUHU21623XXSP,2013-03-11 03:03:00,
2013-03-10 22:08:00,41.2,37.9,28.88,SW,225,0.0,0.0,88,0.00,,,1.65,WUHU21623XXSP,2013-03-11 03:08:00,
2013-03-10 22:13:00,41.2,37.9,28.88,SW,225,0.0,0.0,88,0.00,,,1.65,WUHU21623XXSP,2013-03-11 03:13:00,
2013-03-10 22:18:00,41.2,37.9,28.88,SW,225,0.0,0.0,88,0.00,,,1.65,WUHU21623XXSP,2013-03-11 03:18:00,
2013-03-10 22:57:00,40.5,37.2,28.88,SW,225,0.0,0.0,88,0.00,,,1.65,WUHU21623XXSP,2013-03-11 03:57:00,
2013-03-10 23:57:00,39.6,36.3,28.87,SW,225,0.0,0.0,88,0.00,,,1.65,WUHU21623XXSP,2013-03-11 04:57:00,